Flag for Austria Weather past 2 weeks in Krems, Lower Austria, Austria

Now
70 °F

Scattered clouds.


Feels Like: 70 °F
Forecast: 50 / 65 °F
Wind: 5 mph from Southwest

Location: Tulln Airport

Current Time: Sep 4, 2015 at 3:32:30 PM

Latest Report: Sep 4, 2015 at 2:50 PM


Visibility: 31 mi

Pressure: 30.01 "Hg

Humidity: 53%

Dew point: 52 °F

Location of KremsLocation

Historic Weather in Krems — Graph

°F

Krems temperature yesterday

Maximum temperature yesterday: 73 °F (at 3:50 PM)
Minimum temperature yesterday: 55 °F (at 5:50 AM)
Average temperature yesterday: 65 °F

Past Weeks' High & Low Weather Summary

 TemperatureHumidityPressure
High97 °F (Aug 30, 2:50 PM)100% (Aug 22, 5:50 AM)30.24 "Hg (Aug 22, 5:50 AM)
Low48 °F (Aug 26, 6:50 AM)16% (Aug 31, 2:50 PM)29.71 "Hg (Sep 1, 5:50 PM)
Average73 °F62%30.02 "Hg
* Reported Aug 20 1:50 PM — Sep 4 1:50 PM, Krems, Weather by CustomWeather, © 2015

Note: Actual official high and low records may vary slightly from our data, if they occured in-between our weather recording intervals... More about our weather records

Advertising

Krems weather history for previous 24 hours

 ConditionsComfort  
Time TempWeatherWind HumidityBarometerVisibility
1:50 PM
Fri, Sep 4
70 °FScattered clouds.7 mph60%30.01 "Hg31 mi
12:50 PM73 °FPassing clouds.10 mph53%30.01 "Hg31 mi
11:50 AM70 °FScattered clouds.13 mph60%30.01 "Hg37 mi
10:50 AM68 °FScattered clouds.15 mph64%30.01 "Hg37 mi
9:50 AM63 °FPartly sunny.13 mph77%30.01 "Hg37 mi
8:50 AM59 °FPartly sunny.16 mph88%29.98 "Hg28 mi
7:50 AM59 °FBroken clouds.14 mph88%29.98 "Hg19 mi
6:50 AM57 °FLight rain. Passing clouds.13 mph94%29.98 "Hg16 mi
5:50 AM57 °FLight rain. Passing clouds.14 mph94%29.95 "Hg12 mi
10:50 PM
Thu, Sep 3
61 °FRain. Passing clouds.3 mph94%29.89 "Hg4 mi
9:50 PM63 °FThunderstorms. Partly cloudy.14 mph94%29.89 "Hg4 mi
8:50 PM66 °FPassing clouds.1 mph78%29.86 "Hg12 mi
7:50 PM68 °FPartly sunny.5 mph73%29.86 "Hg16 mi
6:50 PM70 °FPartly sunny.5 mph69%29.86 "Hg22 mi
5:50 PM72 °FPartly sunny.6 mph61%29.86 "Hg25 mi
3:50 PM73 °FBroken clouds.6 mph53%29.89 "Hg25 mi
3:20 PM72 °FPartly sunny.7 mph53%29.92 "Hg28 mi
Weather by CustomWeather, © 2015

See weather overviewHow to use our weather pages